Time,TemperatureF,DewpointF,PressureIn,WindDirection,WindDirectionDegrees,WindSpeedMPH,WindSpeedGustMPH,Humidity,HourlyPrecipIn,Conditions,Clouds,dailyrainin,SoftwareType,DateUTC
2013-01-21 00:05:00,17.9,9.4,30.26,NE,35,8.0,8.0,69,0.00,,,0.00,Wunderground v.1.15,2013-01-21 05:05:00,
2013-01-21 00:10:00,17.9,9.1,30.26,NNW,338,6.0,8.0,68,0.00,,,0.00,Wunderground v.1.15,2013-01-21 05:10:00,
2013-01-21 00:15:00,17.9,9.1,30.26,ENE,74,5.0,8.0,68,0.00,,,0.00,Wunderground v.1.15,2013-01-21 05:15:00,
2013-01-21 00:20:00,17.8,8.7,30.26,NNW,345,5.0,8.0,67,0.00,,,0.00,Wunderground v.1.15,2013-01-21 05:20:00,
2013-01-21 00:25:00,17.8,8.7,30.26,NNE,26,6.0,8.0,67,0.00,,,0.00,Wunderground v.1.15,2013-01-21 05:25:00,
2013-01-21 00:30:00,17.7,8.3,30.25,NNE,26,7.0,10.0,66,0.00,,,0.00,Wunderground v.1.15,2013-01-21 05:30:00,
2013-01-21 00:40:00,17.6,7.5,30.25,NW,316,9.0,9.0,64,0.00,,,0.00,Wunderground v.1.15,2013-01-21 05:40:00,
2013-01-21 00:50:00,17.6,8.2,30.25,North,354,8.0,12.0,66,0.00,,,0.00,Wunderground v.1.15,2013-01-21 05:50:00,
2013-01-21 00:55:00,17.6,7.8,30.24,NNE,30,8.0,12.0,65,0.00,,,0.00,Wunderground v.1.15,2013-01-21 05:55:00,
2013-01-21 01:00:00,17.5,8.1,30.24,East,100,8.0,8.0,66,0.00,,,0.00,Wunderground v.1.15,2013-01-21 06:00:00,
2013-01-21 01:05:00,17.5,8.1,30.24,SE,134,7.0,12.0,66,0.00,,,0.00,Wunderground v.1.15,2013-01-21 06:05:00,
2013-01-21 01:10:00,17.4,8.3,30.24,ESE,110,7.0,7.0,67,0.00,,,0.00,Wunderground v.1.15,2013-01-21 06:10:00,
2013-01-21 01:15:00,17.3,7.9,30.24,ESE,106,7.0,12.0,66,0.00,,,0.00,Wunderground v.1.15,2013-01-21 06:15:00,
2013-01-21 01:20:00,17.3,7.9,30.24,NW,314,8.0,13.0,66,0.00,,,0.00,Wunderground v.1.15,2013-01-21 06:20:00,
2013-01-21 01:30:00,17.1,7.7,30.24,NNE,18,9.0,12.0,66,0.00,,,0.00,Wunderground v.1.15,2013-01-21 06:30:00,
2013-01-21 01:35:00,17.0,7.3,30.24,SSE,158,10.0,12.0,65,0.00,,,0.00,Wunderground v.1.15,2013-01-21 06:35:00,
2013-01-21 01:40:00,16.9,7.2,30.24,NNE,27,11.0,11.0,65,0.00,,,0.00,Wunderground v.1.15,2013-01-21 06:40:00,
2013-01-21 01:45:00,16.8,7.1,30.24,NW,317,10.0,12.0,65,0.00,,,0.00,Wunderground v.1.15,2013-01-21 06:45:00,
2013-01-21 01:50:00,16.8,7.4,30.24,ENE,57,9.0,9.0,66,0.00,,,0.00,Wunderground v.1.15,2013-01-21 06:50:00,
2013-01-21 02:00:00,16.7,7.0,30.24,North,352,9.0,12.0,65,0.00,,,0.00,Wunderground v.1.15,2013-01-21 07:00:00,
2013-01-21 02:05:00,16.7,7.0,30.24,North,8,10.0,13.0,65,0.00,,,0.00,Wunderground v.1.15,2013-01-21 07:05:00,
2013-01-21 02:10:00,16.6,6.9,30.24,ESE,108,10.0,10.0,65,0.00,,,0.00,Wunderground v.1.15,2013-01-21 07:10:00,
2013-01-21 02:15:00,16.6,7.2,30.24,East,93,9.0,12.0,66,0.00,,,0.00,Wunderground v.1.15,2013-01-21 07:15:00,
2013-01-21 02:20:00,16.6,6.9,30.24,West,272,9.0,12.0,65,0.00,,,0.00,Wunderground v.1.15,2013-01-21 07:20:00,
2013-01-21 02:30:00,16.4,7.3,30.24,WNW,302,9.0,9.0,67,0.00,,,0.00,Wunderground v.1.15,2013-01-21 07:30:00,
2013-01-21 02:35:00,16.4,7.0,30.24,ENE,65,9.0,12.0,66,0.00,,,0.00,Wunderground v.1.15,2013-01-21 07:35:00,
2013-01-21 02:40:00,16.4,6.7,30.24,NNE,27,10.0,12.0,65,0.00,,,0.00,Wunderground v.1.15,2013-01-21 07:40:00,
2013-01-21 02:45:00,16.4,6.3,30.24,SSE,158,10.0,12.0,64,0.00,,,0.00,Wunderground v.1.15,2013-01-21 07:45:00,
2013-01-21 02:50:00,16.3,5.9,30.24,NW,323,11.0,11.0,63,0.00,,,0.00,Wunderground v.1.15,2013-01-21 07:50:00,
2013-01-21 02:55:00,16.3,6.2,30.24,ESE,111,10.0,12.0,64,0.00,,,0.00,Wunderground v.1.15,2013-01-21 07:55:00,
2013-01-21 03:05:00,16.2,5.8,30.24,NW,315,10.0,10.0,63,0.00,,,0.00,Wunderground v.1.15,2013-01-21 08:05:00,
2013-01-21 03:10:00,16.2,6.1,30.23,East,79,10.0,10.0,64,0.00,,,0.00,Wunderground v.1.15,2013-01-21 08:10:00,
2013-01-21 03:15:00,16.1,5.7,30.23,NW,306,10.0,10.0,63,0.00,,,0.00,Wunderground v.1.15,2013-01-21 08:15:00,
2013-01-21 03:20:00,16.0,5.6,30.23,NE,42,11.0,11.0,63,0.00,,,0.00,Wunderground v.1.15,2013-01-21 08:20:00,
2013-01-21 03:25:00,16.0,5.3,30.23,SE,124,10.0,11.0,62,0.00,,,0.00,Wunderground v.1.15,2013-01-21 08:25:00,
2013-01-21 03:30:00,16.0,5.3,30.23,North,5,9.0,10.0,62,0.00,,,0.00,Wunderground v.1.15,2013-01-21 08:30:00,
2013-01-21 03:40:00,16.0,4.9,30.23,SE,138,10.0,10.0,61,0.00,,,0.00,Wunderground v.1.15,2013-01-21 08:40:00,
2013-01-21 03:50:00,16.0,4.5,30.22,ESE,106,11.0,11.0,60,0.00,,,0.00,Wunderground v.1.15,2013-01-21 08:50:00,
2013-01-21 03:55:00,16.0,4.5,30.22,NE,36,11.0,19.0,60,0.00,,,0.00,Wunderground v.1.15,2013-01-21 08:55:00,
2013-01-21 04:00:00,16.0,4.5,30.22,North,7,11.0,19.0,60,0.00,,,0.00,Wunderground v.1.15,2013-01-21 09:00:00,
2013-01-21 04:05:00,16.0,4.5,30.22,NNE,19,11.0,19.0,60,0.00,,,0.00,Wunderground v.1.15,2013-01-21 09:05:00,
2013-01-21 04:15:00,15.9,4.4,30.21,WNW,295,12.0,19.0,60,0.00,,,0.00,Wunderground v.1.15,2013-01-21 09:15:00,
2013-01-21 04:20:00,15.8,4.4,30.21,NE,46,12.0,12.0,60,0.00,,,0.00,Wunderground v.1.15,2013-01-21 09:20:00,
2013-01-21 04:25:00,15.8,4.4,30.21,NE,49,12.0,19.0,60,0.00,,,0.00,Wunderground v.1.15,2013-01-21 09:25:00,
2013-01-21 04:30:00,15.8,4.7,30.21,NNW,345,11.0,11.0,61,0.00,,,0.00,Wunderground v.1.15,2013-01-21 09:30:00,
2013-01-21 04:35:00,15.7,4.3,30.21,ESE,115,9.0,15.0,60,0.00,,,0.00,Wunderground v.1.15,2013-01-21 09:35:00,
2013-01-21 04:40:00,15.6,4.2,30.21,ENE,68,10.0,10.0,60,0.00,,,0.00,Wunderground v.1.15,2013-01-21 09:40:00,
2013-01-21 04:50:00,15.5,4.1,30.20,NNE,22,11.0,11.0,60,0.00,,,0.00,Wunderground v.1.15,2013-01-21 09:50:00,
2013-01-21 04:55:00,15.5,4.4,30.20,SSW,200,10.0,19.0,61,0.00,,,0.00,Wunderground v.1.15,2013-01-21 09:55:00,
2013-01-21 05:00:00,15.5,4.8,30.20,South,180,9.0,19.0,62,0.00,,,0.00,Wunderground v.1.15,2013-01-21 10:00:00,
2013-01-21 05:05:00,15.4,5.0,30.20,WSW,255,10.0,19.0,63,0.00,,,0.00,Wunderground v.1.15,2013-01-21 10:05:00,
2013-01-21 05:10:00,15.3,5.3,30.20,NNW,333,11.0,19.0,64,0.00,,,0.00,Wunderground v.1.15,2013-01-21 10:10:00,
2013-01-21 05:15:00,15.3,5.3,30.20,NNE,19,11.0,19.0,64,0.00,,,0.00,Wunderground v.1.15,2013-01-21 10:15:00,
2013-01-21 05:25:00,15.2,5.5,30.20,ESE,104,12.0,15.0,65,0.00,,,0.00,Wunderground v.1.15,2013-01-21 10:25:00,
2013-01-21 05:30:00,15.1,5.4,30.20,NNE,27,11.0,11.0,65,0.00,,,0.00,Wunderground v.1.15,2013-01-21 10:30:00,
2013-01-21 05:35:00,15.1,5.8,30.20,NW,326,11.0,13.0,66,0.00,,,0.00,Wunderground v.1.15,2013-01-21 10:35:00,
2013-01-21 05:40:00,15.0,5.7,30.20,NE,50,12.0,19.0,66,0.00,,,0.00,Wunderground v.1.15,2013-01-21 10:40:00,
2013-01-21 05:50:00,15.0,6.0,30.20,East,93,13.0,19.0,67,0.00,,,0.00,Wunderground v.1.15,2013-01-21 10:50:00,
2013-01-21 06:00:00,14.9,6.2,30.20,ENE,70,13.0,13.0,68,0.00,,,0.00,Wunderground v.1.15,2013-01-21 11:00:00,
2013-01-21 06:05:00,14.8,6.1,30.20,NE,44,13.0,14.0,68,0.00,,,0.00,Wunderground v.1.15,2013-01-21 11:05:00,
2013-01-21 06:10:00,14.8,6.5,30.20,WNW,290,12.0,12.0,69,0.00,,,0.00,Wunderground v.1.15,2013-01-21 11:10:00,
2013-01-21 06:15:00,14.8,6.1,30.20,NE,44,14.0,14.0,68,0.00,,,0.00,Wunderground v.1.15,2013-01-21 11:15:00,
2013-01-21 06:20:00,14.7,6.0,30.20,North,354,15.0,15.0,68,0.00,,,0.00,Wunderground v.1.15,2013-01-21 11:20:00,
2013-01-21 06:25:00,14.6,6.0,30.20,NNE,19,14.0,17.0,68,0.00,,,0.00,Wunderground v.1.15,2013-01-21 11:25:00,
2013-01-21 06:30:00,14.6,6.3,30.20,SSE,148,13.0,19.0,69,0.00,,,0.00,Wunderground v.1.15,2013-01-21 11:30:00,
2013-01-21 06:35:00,14.4,6.4,30.20,ESE,115,14.0,19.0,70,0.00,,,0.00,Wunderground v.1.15,2013-01-21 11:35:00,
2013-01-21 06:40:00,14.5,6.8,30.20,NE,34,13.0,13.0,71,0.00,,,0.00,Wunderground v.1.15,2013-01-21 11:40:00,
2013-01-21 06:45:00,14.4,6.7,30.20,NE,56,12.0,14.0,71,0.00,,,0.00,Wunderground v.1.15,2013-01-21 11:45:00,
2013-01-21 06:55:00,14.3,6.9,30.20,SSE,155,13.0,19.0,72,0.00,,,0.00,Wunderground v.1.15,2013-01-21 11:55:00,
2013-01-21 07:00:00,14.2,7.1,30.20,SSE,167,12.0,14.0,73,0.00,,,0.00,Wunderground v.1.15,2013-01-21 12:00:00,
2013-01-21 07:10:00,14.1,7.0,30.20,NE,50,10.0,17.0,73,0.00,,,0.00,Wunderground v.1.15,2013-01-21 12:10:00,
2013-01-21 07:15:00,14.0,6.9,30.20,North,350,11.0,17.0,73,0.00,,,0.00,Wunderground v.1.15,2013-01-21 12:15:00,
2013-01-21 07:20:00,14.0,7.2,30.20,NNW,337,11.0,11.0,74,0.00,,,0.00,Wunderground v.1.15,2013-01-21 12:20:00,
2013-01-21 07:25:00,13.9,6.8,30.20,South,170,10.0,11.0,73,0.00,,,0.00,Wunderground v.1.15,2013-01-21 12:25:00,
2013-01-21 07:30:00,13.8,6.7,30.20,North,353,11.0,11.0,73,0.00,,,0.00,Wunderground v.1.15,2013-01-21 12:30:00,
2013-01-21 07:40:00,13.8,7.0,30.20,North,6,10.0,24.0,74,0.00,,,0.00,Wunderground v.1.15,2013-01-21 12:40:00,
2013-01-21 07:45:00,13.6,6.8,30.20,North,350,12.0,24.0,74,0.00,,,0.00,Wunderground v.1.15,2013-01-21 12:45:00,
2013-01-21 07:55:00,13.2,7.0,30.20,WNW,295,15.0,24.0,76,0.00,,,0.00,Wunderground v.1.15,2013-01-21 12:55:00,
2013-01-21 08:00:00,13.0,6.6,30.19,NE,41,12.0,24.0,75,0.00,,,0.00,Wunderground v.1.15,2013-01-21 13:00:00,
2013-01-21 08:05:00,12.8,5.5,30.20,North,356,11.0,24.0,72,0.00,,,0.00,Wunderground v.1.15,2013-01-21 13:05:00,
2013-01-21 08:15:00,12.5,4.6,30.19,SW,221,14.0,24.0,70,0.00,,,0.00,Wunderground v.1.15,2013-01-21 13:15:00,
2013-01-21 08:20:00,12.4,4.2,30.19,North,351,16.0,24.0,69,0.00,,,0.00,Wunderground v.1.15,2013-01-21 13:20:00,
2013-01-21 08:25:00,12.3,3.7,30.19,NNE,25,17.0,24.0,68,0.00,,,0.00,Wunderground v.1.15,2013-01-21 13:25:00,
2013-01-21 08:30:00,12.3,3.7,30.20,South,189,15.0,15.0,68,0.00,,,0.00,Wunderground v.1.15,2013-01-21 13:30:00,
2013-01-21 08:35:00,12.3,4.1,30.19,NNE,23,14.0,24.0,69,0.00,,,0.00,Wunderground v.1.15,2013-01-21 13:35:00,
2013-01-21 08:45:00,12.3,4.4,30.20,ESE,122,15.0,24.0,70,0.00,,,0.00,Wunderground v.1.15,2013-01-21 13:45:00,
2013-01-21 08:50:00,12.3,4.4,30.20,SW,236,14.0,24.0,70,0.00,,,0.00,Wunderground v.1.15,2013-01-21 13:50:00,
2013-01-21 08:55:00,12.3,5.0,30.20,NE,43,13.0,24.0,72,0.00,,,0.00,Wunderground v.1.15,2013-01-21 13:55:00,
2013-01-21 09:00:00,12.4,5.4,30.21,ENE,63,11.0,24.0,73,0.00,,,0.00,Wunderground v.1.15,2013-01-21 14:00:00,
2013-01-21 09:05:00,12.2,5.2,30.21,North,7,12.0,24.0,73,0.00,,,0.00,Wunderground v.1.15,2013-01-21 14:05:00,
2013-01-21 09:10:00,12.1,5.4,30.21,WSW,249,13.0,13.0,74,0.00,,,0.00,Wunderground v.1.15,2013-01-21 14:10:00,
2013-01-21 09:15:00,12.1,5.7,30.21,NNE,24,11.0,17.0,75,0.00,,,0.00,Wunderground v.1.15,2013-01-21 14:15:00,
2013-01-21 09:25:00,11.9,6.1,30.21,North,351,13.0,24.0,77,0.00,,,0.00,Wunderground v.1.15,2013-01-21 14:25:00,
2013-01-21 09:30:00,11.9,6.1,30.21,NW,317,13.0,13.0,77,0.00,,,0.00,Wunderground v.1.15,2013-01-21 14:30:00,
2013-01-21 09:35:00,12.1,6.3,30.21,South,181,14.0,14.0,77,0.00,,,0.00,Wunderground v.1.15,2013-01-21 14:35:00,
2013-01-21 09:45:00,12.6,6.5,30.22,East,80,14.0,17.0,76,0.00,,,0.00,Wunderground v.1.15,2013-01-21 14:45:00,
2013-01-21 09:50:00,12.6,5.9,30.21,NE,50,15.0,24.0,74,0.00,,,0.00,Wunderground v.1.15,2013-01-21 14:50:00,
2013-01-21 10:00:00,13.1,5.5,30.21,North,5,17.0,17.0,71,0.00,,,0.00,Wunderground v.1.15,2013-01-21 15:00:00,
2013-01-21 10:10:00,14.0,5.7,30.21,NNW,330,14.0,15.0,69,0.00,,,0.00,Wunderground v.1.15,2013-01-21 15:10:00,
2013-01-21 10:15:00,13.9,5.3,30.22,NNE,12,15.0,17.0,68,0.00,,,0.00,Wunderground v.1.15,2013-01-21 15:15:00,
2013-01-21 10:20:00,14.4,6.1,30.22,North,356,14.0,24.0,69,0.00,,,0.00,Wunderground v.1.15,2013-01-21 15:20:00,
2013-01-21 10:30:00,13.6,5.3,30.22,SSW,198,16.0,16.0,69,0.00,,,0.00,Wunderground v.1.15,2013-01-21 15:30:00,
2013-01-21 10:35:00,13.3,5.3,30.21,NNW,337,13.0,27.0,70,0.00,,,0.00,Wunderground v.1.15,2013-01-21 15:35:00,
2013-01-21 10:45:00,13.6,5.3,30.21,ESE,120,10.0,27.0,69,0.00,,,0.00,Wunderground v.1.15,2013-01-21 15:45:00,
2013-01-21 10:50:00,13.8,5.5,30.21,North,358,11.0,27.0,69,0.00,,,0.00,Wunderground v.1.15,2013-01-21 15:50:00,
2013-01-21 10:55:00,13.7,4.1,30.21,ESE,112,13.0,27.0,65,0.00,,,0.00,Wunderground v.1.15,2013-01-21 15:55:00,
2013-01-21 11:05:00,14.1,3.1,30.22,NNE,13,16.0,28.0,61,0.00,,,0.00,Wunderground v.1.15,2013-01-21 16:05:00,
2013-01-21 11:10:00,13.8,2.8,30.21,NE,50,16.0,16.0,61,0.00,,,0.00,Wunderground v.1.15,2013-01-21 16:10:00,
2013-01-21 11:15:00,13.5,3.2,30.21,NNE,30,15.0,18.0,63,0.00,,,0.00,Wunderground v.1.15,2013-01-21 16:15:00,
2013-01-21 11:20:00,13.0,4.4,30.21,North,1,16.0,16.0,68,0.00,,,0.00,Wunderground v.1.15,2013-01-21 16:20:00,
2013-01-21 11:25:00,12.9,4.3,30.21,South,172,15.0,27.0,68,0.00,,,0.00,Wunderground v.1.15,2013-01-21 16:25:00,
2013-01-21 11:30:00,13.0,5.0,30.21,North,5,14.0,27.0,70,0.00,,,0.00,Wunderground v.1.15,2013-01-21 16:30:00,
2013-01-21 11:40:00,14.3,4.3,30.20,North,6,15.0,15.0,64,0.00,,,0.00,Wunderground v.1.15,2013-01-21 16:40:00,
2013-01-21 11:50:00,14.1,4.1,30.21,North,11,17.0,17.0,64,0.00,,,0.00,Wunderground v.1.15,2013-01-21 16:50:00,
2013-01-21 11:55:00,13.5,5.2,30.20,NNW,330,17.0,27.0,69,0.00,,,0.00,Wunderground v.1.15,2013-01-21 16:55:00,
2013-01-21 12:00:00,12.7,5.7,30.20,NNE,16,15.0,15.0,73,0.00,,,0.00,Wunderground v.1.15,2013-01-21 17:00:00,
2013-01-21 12:10:00,14.2,4.2,30.20,NNE,30,15.0,23.0,64,0.00,,,0.00,Wunderground v.1.15,2013-01-21 17:10:00,
2013-01-21 12:15:00,14.7,4.7,30.20,NNW,348,16.0,23.0,64,0.00,,,0.00,Wunderground v.1.15,2013-01-21 17:15:00,
2013-01-21 12:20:00,15.5,4.8,30.19,West,273,16.0,16.0,62,0.00,,,0.00,Wunderground v.1.15,2013-01-21 17:20:00,
2013-01-21 12:25:00,15.1,6.1,30.20,West,278,13.0,16.0,67,0.00,,,0.00,Wunderground v.1.15,2013-01-21 17:25:00,
2013-01-21 12:30:00,13.8,6.4,30.20,ENE,58,11.0,11.0,72,0.00,,,0.00,Wunderground v.1.15,2013-01-21 17:30:00,
2013-01-21 12:40:00,12.9,6.8,30.19,NNE,18,8.0,28.0,76,0.00,,,0.00,Wunderground v.1.15,2013-01-21 17:40:00,
2013-01-21 12:50:00,12.8,5.2,30.19,ESE,103,12.0,28.0,71,0.00,,,0.00,Wunderground v.1.15,2013-01-21 17:50:00,
2013-01-21 12:55:00,13.2,4.3,30.19,NNE,26,12.0,28.0,67,0.00,,,0.00,Wunderground v.1.15,2013-01-21 17:55:00,
2013-01-21 13:00:00,13.8,6.4,30.19,North,1,14.0,28.0,72,0.00,,,0.00,Wunderground v.1.15,2013-01-21 18:00:00,
2013-01-21 13:05:00,14.0,6.3,30.18,NNW,345,16.0,28.0,71,0.00,,,0.00,Wunderground v.1.15,2013-01-21 18:05:00,
2013-01-21 13:10:00,13.7,4.8,30.18,North,1,17.0,30.0,67,0.00,,,0.00,Wunderground v.1.15,2013-01-21 18:10:00,
2013-01-21 13:20:00,14.5,4.2,30.18,ENE,70,18.0,28.0,63,0.00,,,0.00,Wunderground v.1.15,2013-01-21 18:20:00,
2013-01-21 13:25:00,14.4,4.1,30.18,South,188,17.0,28.0,63,0.00,,,0.00,Wunderground v.1.15,2013-01-21 18:25:00,
2013-01-21 13:30:00,14.4,3.0,30.18,NE,43,18.0,28.0,60,0.00,,,0.00,Wunderground v.1.15,2013-01-21 18:30:00,
2013-01-21 13:35:00,13.9,3.3,30.18,NE,56,19.0,28.0,62,0.00,,,0.00,Wunderground v.1.15,2013-01-21 18:35:00,
2013-01-21 13:45:00,12.3,5.3,30.19,NE,43,15.0,20.0,73,0.00,,,0.00,Wunderground v.1.15,2013-01-21 18:45:00,
2013-01-21 13:55:00,12.4,4.8,30.19,NNE,20,15.0,18.0,71,0.00,,,0.00,Wunderground v.1.15,2013-01-21 18:55:00,
2013-01-21 14:00:00,12.4,3.5,30.19,North,5,15.0,19.0,67,0.00,,,0.00,Wunderground v.1.15,2013-01-21 19:00:00,
2013-01-21 14:05:00,12.7,5.4,30.19,NNW,339,17.0,28.0,72,0.00,,,0.00,Wunderground v.1.15,2013-01-21 19:05:00,
2013-01-21 14:15:00,12.7,4.4,30.19,NNE,14,19.0,21.0,69,0.00,,,0.00,Wunderground v.1.15,2013-01-21 19:15:00,
2013-01-21 14:20:00,12.5,3.9,30.19,North,354,18.0,18.0,68,0.00,,,0.00,Wunderground v.1.15,2013-01-21 19:20:00,
2013-01-21 14:30:00,12.8,1.9,30.19,WNW,293,14.0,19.0,61,0.00,,,0.00,Wunderground v.1.15,2013-01-21 19:30:00,
2013-01-21 14:35:00,12.7,1.1,30.19,North,360,15.0,33.0,59,0.00,,,0.00,Wunderground v.1.15,2013-01-21 19:35:00,
2013-01-21 14:40:00,13.0,1.0,30.20,WSW,243,15.0,15.0,58,0.00,,,0.00,Wunderground v.1.15,2013-01-21 19:40:00,
2013-01-21 14:45:00,13.2,0.4,30.20,West,277,14.0,33.0,56,0.00,,,0.00,Wunderground v.1.15,2013-01-21 19:45:00,
2013-01-21 14:50:00,13.0,-0.2,30.20,NNE,30,16.0,33.0,55,0.00,,,0.00,Wunderground v.1.15,2013-01-21 19:50:00,
2013-01-21 14:55:00,13.0,0.6,30.20,ESE,106,18.0,33.0,57,0.00,,,0.00,Wunderground v.1.15,2013-01-21 19:55:00,
2013-01-21 15:00:00,12.7,1.1,30.21,SW,217,18.0,18.0,59,0.00,,,0.00,Wunderground v.1.15,2013-01-21 20:00:00,
2013-01-21 15:05:00,12.5,2.6,30.21,ESE,114,14.0,33.0,64,0.00,,,0.00,Wunderground v.1.15,2013-01-21 20:05:00,
2013-01-21 15:15:00,12.4,0.8,30.21,ENE,68,3.0,8.0,59,0.00,,,0.00,Wunderground v.1.15,2013-01-21 20:15:00,
2013-01-21 15:20:00,12.2,0.6,30.21,WSW,250,5.0,5.0,59,0.00,,,0.00,Wunderground v.1.15,2013-01-21 20:20:00,
2013-01-21 15:25:00,11.7,0.8,30.22,ESE,108,6.0,6.0,61,0.00,,,0.00,Wunderground v.1.15,2013-01-21 20:25:00,
2013-01-21 15:30:00,11.5,0.3,30.22,SE,124,4.0,33.0,60,0.00,,,0.00,Wunderground v.1.15,2013-01-21 20:30:00,
2013-01-21 15:40:00,11.5,-0.1,30.22,SW,219,3.0,33.0,59,0.00,,,0.00,Wunderground v.1.15,2013-01-21 20:40:00,
2013-01-21 15:45:00,11.2,1.0,30.23,North,1,5.0,33.0,63,0.00,,,0.00,Wunderground v.1.15,2013-01-21 20:45:00,
2013-01-21 15:50:00,11.0,0.5,30.23,NNE,29,8.0,33.0,62,0.00,,,0.00,Wunderground v.1.15,2013-01-21 20:50:00,
2013-01-21 15:55:00,10.6,-1.3,30.23,NNE,26,11.0,33.0,58,0.00,,,0.00,Wunderground v.1.15,2013-01-21 20:55:00,
2013-01-21 16:05:00,10.6,-1.7,30.24,North,8,10.0,18.0,57,0.00,,,0.00,Wunderground v.1.15,2013-01-21 21:05:00,
2013-01-21 16:15:00,10.3,-1.6,30.24,NE,42,11.0,12.0,58,0.00,,,0.00,Wunderground v.1.15,2013-01-21 21:15:00,
2013-01-21 16:20:00,10.7,-1.2,30.24,South,187,9.0,9.0,58,0.00,,,0.00,Wunderground v.1.15,2013-01-21 21:20:00,
2013-01-21 16:25:00,10.4,-0.4,30.24,SW,224,9.0,15.0,61,0.00,,,0.00,Wunderground v.1.15,2013-01-21 21:25:00,
2013-01-21 16:30:00,10.6,0.1,30.25,NNE,24,8.0,8.0,62,0.00,,,0.00,Wunderground v.1.15,2013-01-21 21:30:00,
2013-01-21 16:35:00,10.7,-1.6,30.24,NNE,30,9.0,16.0,57,0.00,,,0.00,Wunderground v.1.15,2013-01-21 21:35:00,
2013-01-21 16:40:00,10.6,-2.4,30.25,SW,236,13.0,13.0,55,0.00,,,0.00,Wunderground v.1.15,2013-01-21 21:40:00,
2013-01-21 16:45:00,10.6,-1.7,30.25,NE,42,16.0,16.0,57,0.00,,,0.00,Wunderground v.1.15,2013-01-21 21:45:00,
2013-01-21 16:50:00,10.6,-0.9,30.25,NE,34,15.0,15.0,59,0.00,,,0.00,Wunderground v.1.15,2013-01-21 21:50:00,
2013-01-21 17:00:00,10.4,-1.8,30.25,NE,51,10.0,10.0,57,0.00,,,0.00,Wunderground v.1.15,2013-01-21 22:00:00,
2013-01-21 17:05:00,10.3,-1.9,30.25,NNW,334,6.0,21.0,57,0.00,,,0.00,Wunderground v.1.15,2013-01-21 22:05:00,
2013-01-21 17:10:00,10.2,-2.0,30.25,NE,56,5.0,21.0,57,0.00,,,0.00,Wunderground v.1.15,2013-01-21 22:10:00,
2013-01-21 17:20:00,9.8,-1.0,30.25,ENE,70,11.0,11.0,61,0.00,,,0.00,Wunderground v.1.15,2013-01-21 22:20:00,
2013-01-21 17:25:00,9.7,-2.1,30.25,NE,46,11.0,21.0,58,0.00,,,0.00,Wunderground v.1.15,2013-01-21 22:25:00,
2013-01-21 17:30:00,9.7,-2.1,30.25,NE,44,10.0,10.0,58,0.00,,,0.00,Wunderground v.1.15,2013-01-21 22:30:00,
2013-01-21 17:35:00,9.5,-2.3,30.25,ENE,72,10.0,21.0,58,0.00,,,0.00,Wunderground v.1.15,2013-01-21 22:35:00,
2013-01-21 17:40:00,9.4,-2.1,30.25,NNE,15,10.0,21.0,59,0.00,,,0.00,Wunderground v.1.15,2013-01-21 22:40:00,
2013-01-21 17:50:00,9.3,-2.2,30.26,ENE,69,12.0,12.0,59,0.00,,,0.00,Wunderground v.1.15,2013-01-21 22:50:00,
2013-01-21 18:00:00,9.3,-2.2,30.26,WSW,243,13.0,13.0,59,0.00,,,0.00,Wunderground v.1.15,2013-01-21 23:00:00,
2013-01-21 18:10:00,9.0,-1.4,30.26,North,350,10.0,11.0,62,0.00,,,0.00,Wunderground v.1.15,2013-01-21 23:10:00,
2013-01-21 18:15:00,8.9,-1.5,30.26,NNW,340,10.0,16.0,62,0.00,,,0.00,Wunderground v.1.15,2013-01-21 23:15:00,
2013-01-21 18:20:00,8.8,-1.9,30.26,NE,34,11.0,16.0,61,0.00,,,0.00,Wunderground v.1.15,2013-01-21 23:20:00,
2013-01-21 18:25:00,8.7,-2.0,30.26,ESE,123,13.0,16.0,61,0.00,,,0.00,Wunderground v.1.15,2013-01-21 23:25:00,
2013-01-21 18:30:00,8.7,-2.0,30.26,NNE,18,14.0,14.0,61,0.00,,,0.00,Wunderground v.1.15,2013-01-21 23:30:00,
2013-01-21 18:40:00,8.5,-2.6,30.27,West,274,13.0,13.0,60,0.00,,,0.00,Wunderground v.1.15,2013-01-21 23:40:00,
2013-01-21 18:45:00,8.4,-2.7,30.27,NE,41,13.0,14.0,60,0.00,,,0.00,Wunderground v.1.15,2013-01-21 23:45:00,
2013-01-21 18:50:00,8.3,-2.7,30.27,North,4,13.0,22.0,60,0.00,,,0.00,Wunderground v.1.15,2013-01-21 23:50:00,
2013-01-21 19:00:00,8.1,-2.9,30.27,ENE,61,11.0,22.0,60,0.00,,,0.00,Wunderground v.1.15,2013-01-22 00:00:00,
2013-01-21 19:05:00,8.0,-3.0,30.28,WSW,253,11.0,22.0,60,0.00,,,0.00,Wunderground v.1.15,2013-01-22 00:05:00,
2013-01-21 19:10:00,7.9,-3.1,30.27,NNW,328,12.0,22.0,60,0.00,,,0.00,Wunderground v.1.15,2013-01-22 00:10:00,
2013-01-21 19:20:00,7.8,-2.9,30.27,SW,216,12.0,12.0,61,0.00,,,0.00,Wunderground v.1.15,2013-01-22 00:20:00,
2013-01-21 19:25:00,7.8,-2.9,30.28,ENE,59,11.0,22.0,61,0.00,,,0.00,Wunderground v.1.15,2013-01-22 00:25:00,
2013-01-21 19:35:00,7.8,-2.9,30.27,WNW,294,12.0,22.0,61,0.00,,,0.00,Wunderground v.1.15,2013-01-22 00:35:00,
2013-01-21 19:40:00,7.7,-3.0,30.27,NNW,333,12.0,22.0,61,0.00,,,0.00,Wunderground v.1.15,2013-01-22 00:40:00,
2013-01-21 19:45:00,7.7,-3.0,30.27,North,350,12.0,22.0,61,0.00,,,0.00,Wunderground v.1.15,2013-01-22 00:45:00,
2013-01-21 19:50:00,7.7,-3.3,30.27,East,84,14.0,14.0,60,0.00,,,0.00,Wunderground v.1.15,2013-01-22 00:50:00,
2013-01-21 20:00:00,7.7,-3.3,30.27,NW,316,14.0,14.0,60,0.00,,,0.00,Wunderground v.1.15,2013-01-22 01:00:00,
2013-01-21 20:10:00,7.7,-3.3,30.28,NNW,330,14.0,14.0,60,0.00,,,0.00,Wunderground v.1.15,2013-01-22 01:10:00,
2013-01-21 20:15:00,7.6,-3.4,30.28,NE,50,14.0,16.0,60,0.00,,,0.00,Wunderground v.1.15,2013-01-22 01:15:00,
2013-01-21 20:20:00,7.5,-3.5,30.28,WSW,238,13.0,13.0,60,0.00,,,0.00,Wunderground v.1.15,2013-01-22 01:20:00,
2013-01-21 20:30:00,7.4,-3.6,30.28,NNE,21,14.0,17.0,60,0.00,,,0.00,Wunderground v.1.15,2013-01-22 01:30:00,
2013-01-21 20:35:00,7.4,-3.6,30.28,NNW,345,15.0,23.0,60,0.00,,,0.00,Wunderground v.1.15,2013-01-22 01:35:00,
2013-01-21 20:40:00,7.4,-3.3,30.28,SSW,210,15.0,23.0,61,0.00,,,0.00,Wunderground v.1.15,2013-01-22 01:40:00,
2013-01-21 20:50:00,7.3,-3.3,30.28,NNE,27,14.0,14.0,61,0.00,,,0.00,Wunderground v.1.15,2013-01-22 01:50:00,
2013-01-21 20:55:00,7.3,-3.3,30.28,ENE,75,15.0,15.0,61,0.00,,,0.00,Wunderground v.1.15,2013-01-22 01:55:00,
2013-01-21 21:00:00,7.2,-3.4,30.28,NNW,328,15.0,15.0,61,0.00,,,0.00,Wunderground v.1.15,2013-01-22 02:00:00,
2013-01-21 21:10:00,7.2,-3.1,30.28,NE,37,14.0,14.0,62,0.00,,,0.00,Wunderground v.1.15,2013-01-22 02:10:00,
2013-01-21 21:15:00,7.1,-3.2,30.29,SW,231,14.0,23.0,62,0.00,,,0.00,Wunderground v.1.15,2013-01-22 02:15:00,
2013-01-21 21:20:00,7.0,-3.3,30.29,West,263,15.0,23.0,62,0.00,,,0.00,Wunderground v.1.15,2013-01-22 02:20:00,
2013-01-21 21:30:00,7.0,-3.3,30.29,NW,326,15.0,15.0,62,0.00,,,0.00,Wunderground v.1.15,2013-01-22 02:30:00,
2013-01-21 21:40:00,6.9,-3.4,30.30,NNE,23,16.0,24.0,62,0.00,,,0.00,Wunderground v.1.15,2013-01-22 02:40:00,
2013-01-21 21:50:00,7.0,-3.6,30.30,ENE,58,18.0,23.0,61,0.00,,,0.00,Wunderground v.1.15,2013-01-22 02:50:00,
2013-01-21 21:55:00,6.9,-3.7,30.30,SSW,212,17.0,23.0,61,0.00,,,0.00,Wunderground v.1.15,2013-01-22 02:55:00,
2013-01-21 22:00:00,6.9,-3.7,30.30,NNE,24,15.0,15.0,61,0.00,,,0.00,Wunderground v.1.15,2013-01-22 03:00:00,
2013-01-21 22:10:00,6.8,-3.8,30.30,West,274,17.0,17.0,61,0.00,,,0.00,Wunderground v.1.15,2013-01-22 03:10:00,
2013-01-21 22:15:00,6.7,-3.9,30.30,NNE,22,17.0,17.0,61,0.00,,,0.00,Wunderground v.1.15,2013-01-22 03:15:00,
2013-01-21 22:25:00,6.6,-4.0,30.30,NNE,18,17.0,17.0,61,0.00,,,0.00,Wunderground v.1.15,2013-01-22 03:25:00,
2013-01-21 22:30:00,6.6,-4.0,30.30,WSW,238,17.0,17.0,61,0.00,,,0.00,Wunderground v.1.15,2013-01-22 03:30:00,
2013-01-21 22:40:00,6.5,-4.1,30.31,East,80,16.0,16.0,61,0.00,,,0.00,Wunderground v.1.15,2013-01-22 03:40:00,
2013-01-21 22:45:00,6.4,-3.9,30.31,NNE,22,17.0,24.0,62,0.00,,,0.00,Wunderground v.1.15,2013-01-22 03:45:00,
2013-01-21 22:50:00,6.4,-3.9,30.31,North,3,17.0,18.0,62,0.00,,,0.00,Wunderground v.1.15,2013-01-22 03:50:00,
2013-01-21 23:00:00,6.3,-4.0,30.31,NW,321,16.0,16.0,62,0.00,,,0.00,Wunderground v.1.15,2013-01-22 04:00:00,
2013-01-21 23:05:00,6.3,-4.0,30.31,WNW,294,16.0,21.0,62,0.00,,,0.00,Wunderground v.1.15,2013-01-22 04:05:00,
2013-01-21 23:10:00,6.2,-4.1,30.31,North,6,18.0,30.0,62,0.00,,,0.00,Wunderground v.1.15,2013-01-22 04:10:00,
2013-01-21 23:20:00,6.1,-3.8,30.31,NW,326,15.0,30.0,63,0.00,,,0.00,Wunderground v.1.15,2013-01-22 04:20:00,
2013-01-21 23:25:00,6.1,-3.8,30.32,ENE,71,15.0,30.0,63,0.00,,,0.00,Wunderground v.1.15,2013-01-22 04:25:00,
2013-01-21 23:30:00,6.0,-3.6,30.32,North,8,14.0,14.0,64,0.00,,,0.00,Wunderground v.1.15,2013-01-22 04:30:00,
2013-01-21 23:35:00,5.9,-3.7,30.32,North,353,14.0,19.0,64,0.00,,,0.00,Wunderground v.1.15,2013-01-22 04:35:00,
2013-01-21 23:45:00,5.8,-3.8,30.32,North,11,15.0,30.0,64,0.00,,,0.00,Wunderground v.1.15,2013-01-22 04:45:00,
2013-01-21 23:50:00,5.8,-3.8,30.32,South,181,15.0,15.0,64,0.00,,,0.00,Wunderground v.1.15,2013-01-22 04:50:00,
2013-01-21 23:55:00,5.7,-3.9,30.32,NNW,334,15.0,30.0,64,0.00,,,0.00,Wunderground v.1.15,2013-01-22 04:55:00,